AFL1430 UNNT-UNBB

Flight info

Callsign AFL1430
Flight time 0h 26m
Altitude 23000
Route ALIRO
Aircraft A320/M-SDE3FGHIRWY/LB1

Departure

Time 2026-04-25 05:50
Airport Novosibirsk Tolmachevo Airport (UNNT)

Arrival

Time 2026-04-25 06:16
Airport Barnaul Gherman Titov International Airport (UNBB)
Time Latitude Longitude Altitude Speed Heading
2026-04-25 05:46 55.01068 82.66329 373 ft 0 kts 171°
2026-04-25 05:47 55.01064 82.66330 373 ft 2 kts 171°
2026-04-25 05:48 55.01034 82.66344 373 ft 6 kts 152°
2026-04-25 05:48 55.01033 82.66435 373 ft 10 kts 70°
2026-04-25 05:48 55.01065 82.66571 373 ft 14 kts 68°
2026-04-25 05:48 55.01149 82.66649 373 ft 17 kts 353°
2026-04-25 05:49 55.01283 82.66615 373 ft 21 kts 351°
2026-04-25 05:49 55.01374 82.66513 375 ft 15 kts 274°
2026-04-25 05:49 55.01355 82.66286 373 ft 33 kts 261°
2026-04-25 05:49 55.01278 82.65444 373 ft 104 kts 262°
2026-04-25 05:50 55.01131 82.63866 378 ft 157 kts 258°
2026-04-25 05:50 55.00919 82.61928 914 ft 163 kts 257°
2026-04-25 05:50 55.00728 82.59969 1698 ft 165 kts 259°
2026-04-25 05:50 55.00528 82.57909 2219 ft 182 kts 258°
2026-04-25 05:51 55.00311 82.55579 2649 ft 209 kts 264°
2026-04-25 05:51 55.00644 82.53002 3173 ft 236 kts 303°
2026-04-25 05:51 55.01986 82.51194 3843 ft 259 kts 340°
2026-04-25 05:51 55.03813 82.51143 4768 ft 273 kts 14°
2026-04-25 05:52 55.05413 82.52963 5714 ft 285 kts 49°
2026-04-25 05:52 55.06233 82.56111 6641 ft 292 kts 82°
2026-04-25 05:52 55.05978 82.59597 7506 ft 294 kts 116°
2026-04-25 05:52 55.04861 82.62577 8374 ft 295 kts 129°
2026-04-25 05:53 55.03621 82.65455 9262 ft 299 kts 129°
2026-04-25 05:53 55.02362 82.68366 10115 ft 303 kts 129°
2026-04-25 05:53 55.01051 82.71381 10514 ft 324 kts 129°
2026-04-25 05:53 54.99783 82.74803 10776 ft 349 kts 119°
2026-04-25 05:54 54.99072 82.77419 11136 ft 357 kts 114°
2026-04-25 05:54 54.98175 82.81504 11833 ft 364 kts 110°
2026-04-25 05:54 54.96583 82.90012 13280 ft 375 kts 109°
2026-04-25 05:55 54.95760 82.94349 13970 ft 380 kts 110°
2026-04-25 05:55 54.94758 82.98619 14581 ft 383 kts 122°
2026-04-25 05:55 54.93119 83.02251 15209 ft 383 kts 140°
2026-04-25 05:55 54.90945 83.04863 15869 ft 380 kts 158°
2026-04-25 05:56 54.88455 83.06282 16520 ft 376 kts 174°
2026-04-25 05:56 54.85865 83.06460 17170 ft 372 kts 191°
2026-04-25 05:56 54.83316 83.05782 17821 ft 373 kts 194°
2026-04-25 05:56 54.80741 83.05054 18461 ft 376 kts 193°
2026-04-25 05:57 54.78155 83.04328 19001 ft 379 kts 193°
2026-04-25 05:57 54.75533 83.03598 19531 ft 382 kts 193°
2026-04-25 05:57 54.72900 83.02862 20057 ft 386 kts 193°
2026-04-25 05:57 54.70237 83.02117 20576 ft 389 kts 193°
2026-04-25 05:58 54.67549 83.01369 21089 ft 393 kts 193°
2026-04-25 05:58 54.64838 83.00612 21607 ft 396 kts 193°
2026-04-25 05:58 54.62104 82.99845 22116 ft 400 kts 193°
2026-04-25 05:58 54.59309 82.99067 22625 ft 403 kts 193°
2026-04-25 05:59 54.56527 82.98296 23025 ft 407 kts 193°
2026-04-25 05:59 54.53732 82.97518 23117 ft 407 kts 193°
2026-04-25 05:59 54.50931 82.96743 23119 ft 408 kts 193°
2026-04-25 05:59 54.48130 82.95976 23121 ft 408 kts 193°
2026-04-25 06:00 54.45329 82.95205 23121 ft 408 kts 193°
2026-04-25 06:00 54.42528 82.94431 23125 ft 408 kts 192°
2026-04-25 06:00 54.39690 82.94038 23123 ft 412 kts 182°
2026-04-25 06:00 54.36826 82.94530 23129 ft 416 kts 172°
2026-04-25 06:01 54.34020 82.95830 23126 ft 419 kts 166°
2026-04-25 06:01 54.31235 82.97280 23051 ft 416 kts 166°
2026-04-25 06:01 54.28468 82.98709 22421 ft 414 kts 166°
2026-04-25 06:01 54.25734 83.00109 21947 ft 408 kts 166°
2026-04-25 06:02 54.23031 83.01483 21453 ft 398 kts 166°
2026-04-25 06:02 54.20439 83.02802 20989 ft 384 kts 167°
2026-04-25 06:02 54.17885 83.04102 20519 ft 381 kts 167°
2026-04-25 06:02 54.15359 83.05388 20043 ft 379 kts 167°
2026-04-25 06:03 54.12841 83.06670 19564 ft 377 kts 167°
2026-04-25 06:03 54.10327 83.07946 19075 ft 376 kts 167°
2026-04-25 06:03 54.07829 83.09214 18582 ft 375 kts 167°
2026-04-25 06:03 54.05295 83.10500 18042 ft 375 kts 167°
2026-04-25 06:04 54.02804 83.11761 17546 ft 372 kts 167°
2026-04-25 06:04 54.00328 83.13012 17055 ft 370 kts 167°
2026-04-25 06:04 53.97865 83.14258 16569 ft 368 kts 167°
2026-04-25 06:04 53.95412 83.15497 16086 ft 367 kts 167°
2026-04-25 06:05 53.92968 83.16729 15608 ft 366 kts 167°
2026-04-25 06:05 53.90533 83.17955 15122 ft 364 kts 167°
2026-04-25 06:05 53.88105 83.19175 14648 ft 364 kts 167°
2026-04-25 06:05 53.85681 83.20389 14159 ft 363 kts 167°
2026-04-25 06:06 53.83280 83.21593 13653 ft 354 kts 167°
2026-04-25 06:06 53.80959 83.22766 13174 ft 346 kts 167°
2026-04-25 06:06 53.78728 83.24319 12694 ft 349 kts 154°
2026-04-25 06:06 53.76729 83.26670 12212 ft 352 kts 141°
2026-04-25 06:07 53.75054 83.29710 11724 ft 354 kts 131°
2026-04-25 06:07 53.73504 83.32934 11230 ft 354 kts 131°
2026-04-25 06:07 53.71942 83.36169 10723 ft 354 kts 132°
2026-04-25 06:07 53.70421 83.39315 10477 ft 335 kts 132°
2026-04-25 06:08 53.68987 83.42286 10220 ft 320 kts 132°
2026-04-25 06:08 53.67594 83.45163 10028 ft 314 kts 132°
2026-04-25 06:08 53.66218 83.47990 9896 ft 311 kts 133°
2026-04-25 06:08 53.64838 83.50815 9519 ft 314 kts 132°
2026-04-25 06:09 53.63436 83.53682 9217 ft 309 kts 132°
2026-04-25 06:09 53.62082 83.56449 8773 ft 304 kts 132°
2026-04-25 06:09 53.60743 83.59180 8177 ft 300 kts 131°
2026-04-25 06:09 53.59426 83.61868 7600 ft 295 kts 130°
2026-04-25 06:10 53.58135 83.64506 7023 ft 289 kts 130°
2026-04-25 06:10 53.56862 83.67098 6501 ft 285 kts 130°
2026-04-25 06:10 53.55612 83.69646 5866 ft 281 kts 130°
2026-04-25 06:10 53.54376 83.72166 5203 ft 278 kts 130°
2026-04-25 06:11 53.53120 83.74596 4712 ft 268 kts 139°
2026-04-25 06:11 53.51671 83.76339 4546 ft 246 kts 154°
2026-04-25 06:11 53.50158 83.77432 4405 ft 230 kts 159°
2026-04-25 06:11 53.48688 83.78444 4299 ft 227 kts 161°
2026-04-25 06:12 53.47228 83.79450 4210 ft 228 kts 159°
2026-04-25 06:12 53.45771 83.80459 4097 ft 226 kts 159°
2026-04-25 06:12 53.44269 83.81086 3978 ft 219 kts 187°
2026-04-25 06:12 53.42958 83.80122 3818 ft 205 kts 227°
2026-04-25 06:13 53.42277 83.78099 3531 ft 200 kts 249°
2026-04-25 06:13 53.41747 83.75915 3215 ft 203 kts 248°
2026-04-25 06:13 53.41219 83.73759 2931 ft 197 kts 248°
2026-04-25 06:14 53.40185 83.69548 2413 ft 191 kts 247°
2026-04-25 06:14 53.39679 83.67496 2153 ft 184 kts 247°
2026-04-25 06:14 53.39202 83.65575 1933 ft 174 kts 247°
2026-04-25 06:14 53.38752 83.63759 1746 ft 163 kts 248°
2026-04-25 06:15 53.38331 83.62062 1539 ft 153 kts 247°
2026-04-25 06:15 53.37931 83.60451 1361 ft 148 kts 247°
2026-04-25 06:15 53.37539 83.58882 1188 ft 145 kts 246°
2026-04-25 06:15 53.37162 83.57321 1037 ft 145 kts 248°
2026-04-25 06:16 53.36774 83.55777 867 ft 143 kts 247°
2026-04-25 06:16 53.36445 83.54468 834 ft 83 kts 247°
2026-04-25 06:16 53.36333 83.54013 835 ft 18 kts 249°
2026-04-25 06:16 53.36253 83.53892 837 ft 17 kts 171°
2026-04-25 06:17 53.36155 83.54017 834 ft 15 kts 86°
2026-04-25 06:17 53.36199 83.54215 837 ft 21 kts 67°
2026-04-25 06:17 53.36266 83.54484 831 ft 29 kts 68°
2026-04-25 06:17 53.36350 83.54820 831 ft 34 kts 68°
2026-04-25 06:18 53.36445 83.55198 835 ft 37 kts 67°
2026-04-25 06:18 53.36465 83.55383 841 ft 9 kts 146°
2026-04-25 06:18 53.36425 83.55351 837 ft 7 kts 231°
2026-04-25 06:18 53.36411 83.55302 838 ft 0 kts 245°